Year,Month,Day,Hour,Minute,Value (Times are PST for temperature in C)
2007,11,29,00,00,3.60
2007,11,29,00,01,3.60
2007,11,29,00,02,3.60
2007,11,29,00,03,3.60
2007,11,29,00,04,3.60
2007,11,29,00,05,3.60
2007,11,29,00,06,3.60
2007,11,29,00,07,3.60
2007,11,29,00,08,3.60
2007,11,29,00,09,3.60
2007,11,29,00,10,3.60
2007,11,29,00,11,3.60
2007,11,29,00,12,3.60
2007,11,29,00,13,3.60
2007,11,29,00,14,3.60
2007,11,29,00,15,3.60
2007,11,29,00,16,3.60
2007,11,29,00,17,3.60
2007,11,29,00,18,3.60
2007,11,29,00,19,3.60
2007,11,29,00,20,3.60
2007,11,29,00,21,3.60
2007,11,29,00,22,3.60
2007,11,29,00,23,3.60
2007,11,29,00,24,3.60
2007,11,29,00,25,3.60
2007,11,29,00,26,3.60
2007,11,29,00,27,3.60
2007,11,29,00,28,3.60
2007,11,29,00,29,3.60
2007,11,29,00,30,3.60
2007,11,29,00,31,3.60
2007,11,29,00,32,3.60
2007,11,29,00,33,3.60
2007,11,29,00,34,3.60
2007,11,29,00,35,3.60
2007,11,29,00,36,3.60
2007,11,29,00,37,3.60
2007,11,29,00,38,3.60
2007,11,29,00,39,3.60
2007,11,29,00,40,3.50
2007,11,29,00,41,3.50
2007,11,29,00,42,3.50
2007,11,29,00,43,3.50
2007,11,29,00,44,3.50
2007,11,29,00,45,3.50
2007,11,29,00,46,3.50
2007,11,29,00,47,3.50
2007,11,29,00,48,3.50
2007,11,29,00,49,3.50
2007,11,29,00,50,3.50
2007,11,29,00,51,3.40
2007,11,29,00,52,3.40
2007,11,29,00,53,3.40
2007,11,29,00,54,3.40
2007,11,29,00,55,3.40
2007,11,29,00,56,3.40
2007,11,29,00,57,3.40
2007,11,29,00,58,3.40
2007,11,29,00,59,3.40
2007,11,29,01,00,3.40
2007,11,29,01,01,3.40
2007,11,29,01,02,3.40
2007,11,29,01,03,3.40
2007,11,29,01,04,3.40
2007,11,29,01,05,3.40
2007,11,29,01,06,3.30
2007,11,29,01,07,3.30
2007,11,29,01,08,3.30
2007,11,29,01,09,3.30
2007,11,29,01,10,3.30
2007,11,29,01,11,3.30
2007,11,29,01,12,3.30
2007,11,29,01,13,3.30
2007,11,29,01,14,3.30
2007,11,29,01,15,3.30
2007,11,29,01,16,3.30
2007,11,29,01,17,3.30
2007,11,29,01,18,3.30
2007,11,29,01,19,3.30
2007,11,29,01,20,3.30
2007,11,29,01,21,3.30
2007,11,29,01,22,3.30
2007,11,29,01,23,3.30
2007,11,29,01,24,3.30
2007,11,29,01,25,3.30
2007,11,29,01,26,3.30
2007,11,29,01,27,3.30
2007,11,29,01,28,3.30
2007,11,29,01,29,3.30
2007,11,29,01,30,3.30
2007,11,29,01,31,3.30
2007,11,29,01,32,3.30
2007,11,29,01,33,3.30
2007,11,29,01,34,3.30
2007,11,29,01,35,3.30
2007,11,29,01,36,3.30
2007,11,29,01,37,3.30
2007,11,29,01,38,3.30
2007,11,29,01,39,3.30
2007,11,29,01,40,3.30
2007,11,29,01,41,3.30
2007,11,29,01,42,3.30
2007,11,29,01,43,3.30
2007,11,29,01,44,3.30
2007,11,29,01,45,3.30
2007,11,29,01,46,3.30
2007,11,29,01,47,3.30
2007,11,29,01,48,3.30
2007,11,29,01,49,3.30
2007,11,29,01,50,3.30
2007,11,29,01,51,3.30
2007,11,29,01,52,3.30
2007,11,29,01,53,3.30
2007,11,29,01,54,3.30
2007,11,29,01,55,3.30
2007,11,29,01,56,3.30
2007,11,29,01,57,3.30
2007,11,29,01,58,3.30
2007,11,29,01,59,3.30
2007,11,29,02,00,3.30
2007,11,29,02,01,3.30
2007,11,29,02,02,3.30
2007,11,29,02,03,3.30
2007,11,29,02,04,3.30
2007,11,29,02,05,3.30
2007,11,29,02,06,3.30
2007,11,29,02,07,3.30
2007,11,29,02,08,3.30
2007,11,29,02,09,3.30
2007,11,29,02,10,3.30
2007,11,29,02,11,3.30
2007,11,29,02,12,3.30
2007,11,29,02,13,3.30
2007,11,29,02,14,3.30
2007,11,29,02,15,3.30
2007,11,29,02,16,3.30
2007,11,29,02,17,3.30
2007,11,29,02,18,3.30
2007,11,29,02,19,3.30
2007,11,29,02,20,3.30
2007,11,29,02,21,3.30
2007,11,29,02,22,3.30
2007,11,29,02,23,3.30
2007,11,29,02,24,3.30
2007,11,29,02,25,3.30
2007,11,29,02,26,3.30
2007,11,29,02,27,3.30
2007,11,29,02,28,3.30
2007,11,29,02,29,3.20
2007,11,29,02,30,3.20
2007,11,29,02,31,3.20
2007,11,29,02,32,3.20
2007,11,29,02,33,3.20
2007,11,29,02,34,3.20
2007,11,29,02,35,3.20
2007,11,29,02,36,3.20
2007,11,29,02,37,3.20
2007,11,29,02,38,3.20
2007,11,29,02,39,3.20
2007,11,29,02,40,3.20
2007,11,29,02,41,3.20
2007,11,29,02,42,3.10
2007,11,29,02,43,3.20
2007,11,29,02,44,3.10
2007,11,29,02,45,3.10
2007,11,29,02,46,3.10
2007,11,29,02,47,3.10
2007,11,29,02,48,3.10
2007,11,29,02,49,3.10
2007,11,29,02,50,3.00
2007,11,29,02,51,3.00
2007,11,29,02,52,3.00
2007,11,29,02,53,2.90
2007,11,29,02,54,2.90
2007,11,29,02,55,2.90
2007,11,29,02,56,2.90
2007,11,29,02,57,2.90
2007,11,29,02,58,2.80
2007,11,29,02,59,2.80
2007,11,29,03,00,2.80
2007,11,29,03,01,2.80
2007,11,29,03,02,2.80
2007,11,29,03,03,2.80
2007,11,29,03,04,2.80
2007,11,29,03,05,2.80
2007,11,29,03,06,2.80
2007,11,29,03,07,2.80
2007,11,29,03,08,2.80
2007,11,29,03,09,2.70
2007,11,29,03,10,2.70
2007,11,29,03,11,2.70
2007,11,29,03,12,2.70
2007,11,29,03,13,2.70
2007,11,29,03,14,2.70
2007,11,29,03,15,2.70
2007,11,29,03,16,2.70
2007,11,29,03,17,2.70
2007,11,29,03,18,2.70
2007,11,29,03,19,2.70
2007,11,29,03,20,2.70
2007,11,29,03,21,2.70
2007,11,29,03,22,2.70
2007,11,29,03,23,2.70
2007,11,29,03,24,2.70
2007,11,29,03,25,2.70
2007,11,29,03,26,2.60
2007,11,29,03,27,2.60
2007,11,29,03,28,2.60
2007,11,29,03,29,2.60
2007,11,29,03,30,2.60
2007,11,29,03,31,2.60
2007,11,29,03,32,2.60
2007,11,29,03,33,2.60
2007,11,29,03,34,2.60
2007,11,29,03,35,2.60
2007,11,29,03,36,2.60
2007,11,29,03,37,2.60
2007,11,29,03,38,2.60
2007,11,29,03,39,2.60
2007,11,29,03,40,2.60
2007,11,29,03,41,2.60
2007,11,29,03,42,2.60
2007,11,29,03,43,2.60
2007,11,29,03,44,2.50
2007,11,29,03,45,2.50
2007,11,29,03,46,2.50
2007,11,29,03,47,2.50
2007,11,29,03,48,2.50
2007,11,29,03,49,2.50
2007,11,29,03,50,2.40
2007,11,29,03,51,2.40
2007,11,29,03,52,2.40
2007,11,29,03,53,2.40
2007,11,29,03,54,2.40
2007,11,29,03,55,2.40
2007,11,29,03,56,2.40
2007,11,29,03,57,2.40
2007,11,29,03,58,2.30
2007,11,29,03,59,2.30
2007,11,29,04,00,2.30
2007,11,29,04,01,2.30
2007,11,29,04,02,2.30
2007,11,29,04,03,2.30
2007,11,29,04,04,2.30
2007,11,29,04,05,2.30
2007,11,29,04,06,2.30
2007,11,29,04,07,2.30
2007,11,29,04,08,2.30
2007,11,29,04,09,2.30
2007,11,29,04,10,2.30
2007,11,29,04,11,2.30
2007,11,29,04,12,2.30
2007,11,29,04,13,2.30
2007,11,29,04,14,2.30
2007,11,29,04,15,2.30
2007,11,29,04,16,2.30
2007,11,29,04,17,2.30
2007,11,29,04,18,2.30
2007,11,29,04,19,2.30
2007,11,29,04,20,2.30
2007,11,29,04,21,2.30
2007,11,29,04,22,2.30
2007,11,29,04,23,2.30
2007,11,29,04,24,2.30
2007,11,29,04,25,2.30
2007,11,29,04,26,2.30
2007,11,29,04,27,2.30
2007,11,29,04,28,2.30
2007,11,29,04,29,2.30
2007,11,29,04,30,2.30
2007,11,29,04,31,2.30
2007,11,29,04,32,2.30
2007,11,29,04,33,2.30
2007,11,29,04,34,2.30
2007,11,29,04,35,2.30
2007,11,29,04,36,2.30
2007,11,29,04,37,2.30
2007,11,29,04,38,2.30
2007,11,29,04,39,2.30
2007,11,29,04,40,2.30
2007,11,29,04,41,2.30
2007,11,29,04,42,2.30
2007,11,29,04,43,2.30
2007,11,29,04,44,2.30
2007,11,29,04,45,2.30
2007,11,29,04,46,2.30
2007,11,29,04,47,2.30
2007,11,29,04,48,2.30
2007,11,29,04,49,2.30
2007,11,29,04,50,2.30
2007,11,29,04,51,2.30
2007,11,29,04,52,2.30
2007,11,29,04,53,2.30
2007,11,29,04,54,2.30
2007,11,29,04,55,2.30
2007,11,29,04,56,2.30
2007,11,29,04,57,2.30
2007,11,29,04,58,2.30
2007,11,29,04,59,2.30
2007,11,29,05,00,2.30
2007,11,29,05,01,2.30
2007,11,29,05,02,2.30
2007,11,29,05,03,2.30
2007,11,29,05,04,2.30
2007,11,29,05,05,2.30
2007,11,29,05,06,2.30
2007,11,29,05,07,2.30
2007,11,29,05,08,2.30
2007,11,29,05,09,2.30
2007,11,29,05,10,2.30
2007,11,29,05,11,2.30
2007,11,29,05,12,2.30
2007,11,29,05,13,2.30
2007,11,29,05,14,2.30
2007,11,29,05,15,2.30
2007,11,29,05,16,2.30
2007,11,29,05,17,2.30
2007,11,29,05,18,2.30
2007,11,29,05,19,2.30
2007,11,29,05,20,2.30
2007,11,29,05,21,2.30
2007,11,29,05,22,2.30
2007,11,29,05,23,2.30
2007,11,29,05,24,2.40
2007,11,29,05,25,2.40
2007,11,29,05,26,2.40
2007,11,29,05,27,2.40
2007,11,29,05,28,2.40
2007,11,29,05,29,2.50
2007,11,29,05,30,2.50
2007,11,29,05,31,2.50
2007,11,29,05,32,2.50
2007,11,29,05,33,2.50
2007,11,29,05,34,2.50
2007,11,29,05,35,2.50
2007,11,29,05,36,2.50
2007,11,29,05,37,2.50
2007,11,29,05,38,2.60
2007,11,29,05,39,2.60
2007,11,29,05,40,2.60
2007,11,29,05,41,2.60
2007,11,29,05,42,2.60
2007,11,29,05,43,2.60
2007,11,29,05,44,2.60
2007,11,29,05,45,2.60
2007,11,29,05,46,2.60
2007,11,29,05,47,2.60
2007,11,29,05,48,2.60
2007,11,29,05,49,2.60
2007,11,29,05,50,2.60
2007,11,29,05,51,2.60
2007,11,29,05,52,2.60
2007,11,29,05,53,2.60
2007,11,29,05,54,2.60
2007,11,29,05,55,2.60
2007,11,29,05,56,2.70
2007,11,29,05,57,2.70
2007,11,29,05,58,2.70
2007,11,29,05,59,2.70
2007,11,29,06,00,2.70
2007,11,29,06,01,2.80
2007,11,29,06,02,2.80
2007,11,29,06,03,2.80
2007,11,29,06,04,2.80
2007,11,29,06,05,2.80
2007,11,29,06,06,2.80
2007,11,29,06,07,2.80
2007,11,29,06,08,2.80
2007,11,29,06,09,2.80
2007,11,29,06,10,2.80
2007,11,29,06,11,2.90
2007,11,29,06,12,2.90
2007,11,29,06,13,2.90
2007,11,29,06,14,2.90
2007,11,29,06,15,2.90
2007,11,29,06,16,2.90
2007,11,29,06,17,2.90
2007,11,29,06,18,2.90
2007,11,29,06,19,2.90
2007,11,29,06,20,2.90
2007,11,29,06,21,2.90
2007,11,29,06,22,2.90
2007,11,29,06,23,2.90
2007,11,29,06,24,2.90
2007,11,29,06,25,2.90
2007,11,29,06,26,2.90
2007,11,29,06,27,2.90
2007,11,29,06,28,2.90
2007,11,29,06,29,2.90
2007,11,29,06,30,2.90
2007,11,29,06,31,2.90
2007,11,29,06,32,2.90
2007,11,29,06,33,2.90
2007,11,29,06,34,2.80
2007,11,29,06,35,2.80
2007,11,29,06,36,2.80
2007,11,29,06,37,2.80
2007,11,29,06,38,2.80
2007,11,29,06,39,2.80
2007,11,29,06,40,2.80
2007,11,29,06,41,2.80
2007,11,29,06,42,2.80
2007,11,29,06,43,2.80
2007,11,29,06,44,2.80
2007,11,29,06,45,2.80
2007,11,29,06,46,2.80
2007,11,29,06,47,2.80
2007,11,29,06,48,2.80
2007,11,29,06,49,2.80
2007,11,29,06,50,2.80
2007,11,29,06,51,2.80
2007,11,29,06,52,2.80
2007,11,29,06,53,2.80
2007,11,29,06,54,2.80
2007,11,29,06,55,2.80
2007,11,29,06,56,2.90
2007,11,29,06,57,2.90
2007,11,29,06,58,2.90
2007,11,29,06,59,2.90
2007,11,29,07,00,2.90
2007,11,29,07,01,2.90
2007,11,29,07,02,2.90
2007,11,29,07,03,2.90
2007,11,29,07,04,2.90
2007,11,29,07,05,2.90
2007,11,29,07,06,2.90
2007,11,29,07,07,2.90
2007,11,29,07,08,2.90
2007,11,29,07,09,2.90
2007,11,29,07,10,3.00
2007,11,29,07,11,3.00
2007,11,29,07,12,2.90
2007,11,29,07,13,3.00
2007,11,29,07,14,3.00
2007,11,29,07,15,3.00
2007,11,29,07,16,3.00
2007,11,29,07,17,3.00
2007,11,29,07,18,3.00
2007,11,29,07,19,3.00
2007,11,29,07,20,3.00
2007,11,29,07,21,3.00
2007,11,29,07,22,3.00
2007,11,29,07,23,3.00
2007,11,29,07,24,3.10
2007,11,29,07,25,3.00
2007,11,29,07,26,3.10
2007,11,29,07,27,3.10
2007,11,29,07,28,3.10
2007,11,29,07,29,3.10
2007,11,29,07,30,3.10
2007,11,29,07,31,3.10
2007,11,29,07,32,3.10
2007,11,29,07,33,3.10
2007,11,29,07,34,3.10
2007,11,29,07,35,3.10
2007,11,29,07,36,3.10
2007,11,29,07,37,3.10
2007,11,29,07,38,3.10
2007,11,29,07,39,3.20
2007,11,29,07,40,3.10
2007,11,29,07,41,3.10
2007,11,29,07,42,3.20
2007,11,29,07,43,3.20
2007,11,29,07,44,3.20
2007,11,29,07,45,3.20
2007,11,29,07,46,3.20
2007,11,29,07,47,3.20
2007,11,29,07,48,3.20
2007,11,29,07,49,3.10
2007,11,29,07,50,3.10
2007,11,29,07,51,3.10
2007,11,29,07,52,3.10
2007,11,29,07,53,3.10
2007,11,29,07,54,3.10
2007,11,29,07,55,3.10
2007,11,29,07,56,3.10
2007,11,29,07,57,3.10
2007,11,29,07,58,3.10
2007,11,29,07,59,3.10
2007,11,29,08,00,3.10
2007,11,29,08,01,3.00
2007,11,29,08,02,3.00
2007,11,29,08,03,3.00
2007,11,29,08,04,3.00
2007,11,29,08,05,3.00
2007,11,29,08,06,3.00
2007,11,29,08,07,2.90
2007,11,29,08,08,2.90
2007,11,29,08,09,2.90
2007,11,29,08,10,2.90
2007,11,29,08,11,2.90
2007,11,29,08,12,2.90
2007,11,29,08,13,2.90
2007,11,29,08,14,2.90
2007,11,29,08,15,2.90
2007,11,29,08,16,2.90
2007,11,29,08,17,2.90
2007,11,29,08,18,2.90
2007,11,29,08,19,2.90
2007,11,29,08,20,2.90
2007,11,29,08,21,2.90
2007,11,29,08,22,2.90
2007,11,29,08,23,2.90
2007,11,29,08,24,2.90
2007,11,29,08,25,2.90
2007,11,29,08,26,2.90
2007,11,29,08,27,2.90
2007,11,29,08,28,2.90
2007,11,29,08,29,2.90
2007,11,29,08,30,2.90
2007,11,29,08,31,2.90
2007,11,29,08,32,2.90
2007,11,29,08,33,2.90
2007,11,29,08,34,2.90
2007,11,29,08,35,2.90
2007,11,29,08,36,2.90
2007,11,29,08,37,2.90
2007,11,29,08,38,2.90
2007,11,29,08,39,2.90
2007,11,29,08,40,2.90
2007,11,29,08,41,3.00
2007,11,29,08,42,3.00
2007,11,29,08,43,3.00
2007,11,29,08,44,3.00
2007,11,29,08,45,3.00
2007,11,29,08,46,3.00
2007,11,29,08,47,3.10
2007,11,29,08,48,3.10
2007,11,29,08,49,3.10
2007,11,29,08,50,3.10
2007,11,29,08,51,3.10
2007,11,29,08,52,3.20
2007,11,29,08,53,3.20
2007,11,29,08,54,3.20
2007,11,29,08,55,3.20
2007,11,29,08,56,3.20
2007,11,29,08,57,3.20
2007,11,29,08,58,3.20
2007,11,29,08,59,3.20
2007,11,29,09,00,3.20
2007,11,29,09,01,3.20
2007,11,29,09,02,3.20
2007,11,29,09,03,3.20
2007,11,29,09,04,3.20
2007,11,29,09,05,3.20
2007,11,29,09,06,3.20
2007,11,29,09,07,3.30
2007,11,29,09,08,3.30
2007,11,29,09,09,3.30
2007,11,29,09,10,3.30
2007,11,29,09,11,3.30
2007,11,29,09,12,3.30
2007,11,29,09,13,3.30
2007,11,29,09,14,3.30
2007,11,29,09,15,3.40
2007,11,29,09,16,3.40
2007,11,29,09,17,3.40
2007,11,29,09,18,3.40
2007,11,29,09,19,3.40
2007,11,29,09,20,3.40
2007,11,29,09,21,3.40
2007,11,29,09,22,3.40
2007,11,29,09,23,3.40
2007,11,29,09,24,3.50
2007,11,29,09,25,3.50
2007,11,29,09,26,3.50
2007,11,29,09,27,3.50
2007,11,29,09,28,3.50
2007,11,29,09,29,3.50
2007,11,29,09,30,3.50
2007,11,29,09,31,3.60
2007,11,29,09,32,3.60
2007,11,29,09,33,3.60
2007,11,29,09,34,3.60
2007,11,29,09,35,3.60
2007,11,29,09,36,3.60
2007,11,29,09,37,3.60
2007,11,29,09,38,3.70
2007,11,29,09,39,3.70
2007,11,29,09,40,3.70
2007,11,29,09,41,3.70
2007,11,29,09,42,3.80
2007,11,29,09,43,3.90
2007,11,29,09,44,4.00
2007,11,29,09,45,4.00
2007,11,29,09,46,4.10
2007,11,29,09,47,4.20
2007,11,29,09,48,4.30
2007,11,29,09,49,4.30
2007,11,29,09,50,4.40
2007,11,29,09,51,4.40
2007,11,29,09,52,4.50
2007,11,29,09,53,4.60
2007,11,29,09,54,4.60
2007,11,29,09,55,4.60
2007,11,29,09,56,4.60
2007,11,29,09,57,4.70
2007,11,29,09,58,4.70
2007,11,29,09,59,4.70
2007,11,29,10,00,4.70
2007,11,29,10,01,4.70
2007,11,29,10,02,4.70
2007,11,29,10,03,4.70
2007,11,29,10,04,4.70
2007,11,29,10,05,4.60
2007,11,29,10,06,4.60
2007,11,29,10,07,4.60
2007,11,29,10,08,4.60
2007,11,29,10,09,4.60
2007,11,29,10,10,4.60
2007,11,29,10,11,4.60
2007,11,29,10,12,4.60
2007,11,29,10,13,4.60
2007,11,29,10,14,4.60
2007,11,29,10,15,4.60
2007,11,29,10,16,4.60
2007,11,29,10,17,4.60
2007,11,29,10,18,4.60
2007,11,29,10,19,4.60
2007,11,29,10,20,4.60
2007,11,29,10,21,4.60
2007,11,29,10,22,4.60
2007,11,29,10,23,4.60
2007,11,29,10,24,4.60
2007,11,29,10,25,4.70
2007,11,29,10,26,4.70
2007,11,29,10,27,4.70
2007,11,29,10,28,4.70
2007,11,29,10,29,4.70
2007,11,29,10,30,4.70
2007,11,29,10,31,4.70
2007,11,29,10,32,4.70
2007,11,29,10,33,4.70
2007,11,29,10,34,4.70
2007,11,29,10,35,4.70
2007,11,29,10,36,4.80
2007,11,29,10,37,4.80
2007,11,29,10,38,4.80
2007,11,29,10,39,4.80
2007,11,29,10,40,4.80
2007,11,29,10,41,4.80
2007,11,29,10,42,4.80
2007,11,29,10,43,4.80
2007,11,29,10,44,4.90
2007,11,29,10,45,4.90
2007,11,29,10,46,4.90
2007,11,29,10,47,4.90
2007,11,29,10,48,4.90
2007,11,29,10,49,5.00
2007,11,29,10,50,5.00
2007,11,29,10,51,5.00
2007,11,29,10,52,5.00
2007,11,29,10,53,5.00
2007,11,29,10,54,5.00
2007,11,29,10,55,5.00
2007,11,29,10,56,5.00
2007,11,29,10,57,5.10
2007,11,29,10,58,5.10
2007,11,29,10,59,5.10
2007,11,29,11,00,5.10
2007,11,29,11,01,5.10
2007,11,29,11,02,5.10
2007,11,29,11,03,5.10
2007,11,29,11,04,5.10
2007,11,29,11,05,5.10
2007,11,29,11,06,5.10
2007,11,29,11,07,5.10
2007,11,29,11,08,5.10
2007,11,29,11,09,5.10
2007,11,29,11,10,5.20
2007,11,29,11,11,5.20
2007,11,29,11,12,5.20
2007,11,29,11,13,5.20
2007,11,29,11,14,5.20
2007,11,29,11,15,5.20
2007,11,29,11,16,5.30
2007,11,29,11,17,5.30
2007,11,29,11,18,5.30
2007,11,29,11,19,5.40
2007,11,29,11,20,5.40
2007,11,29,11,21,5.40
2007,11,29,11,22,5.50
2007,11,29,11,23,5.50
2007,11,29,11,24,5.60
2007,11,29,11,25,5.60
2007,11,29,11,26,5.60
2007,11,29,11,27,5.60
2007,11,29,11,28,5.60
2007,11,29,11,29,5.60
2007,11,29,11,30,5.70
2007,11,29,11,31,5.70
2007,11,29,11,32,5.70
2007,11,29,11,33,5.80
2007,11,29,11,34,5.80
2007,11,29,11,35,5.80
2007,11,29,11,36,5.80
2007,11,29,11,37,5.80
2007,11,29,11,38,5.90
2007,11,29,11,39,5.90
2007,11,29,11,40,5.90
2007,11,29,11,41,6.00
2007,11,29,11,42,6.00
2007,11,29,11,43,6.00
2007,11,29,11,44,6.00
2007,11,29,11,45,6.10
2007,11,29,11,46,6.10
2007,11,29,11,47,6.20
2007,11,29,11,48,6.20
2007,11,29,11,49,6.20
2007,11,29,11,50,6.20
2007,11,29,11,51,6.20
2007,11,29,11,52,6.30
2007,11,29,11,53,6.20
2007,11,29,11,54,6.20
2007,11,29,11,55,6.30
2007,11,29,11,56,6.30
2007,11,29,11,57,6.40
2007,11,29,11,58,6.40
2007,11,29,11,59,6.40
2007,11,29,12,00,6.40
2007,11,29,12,01,6.40
2007,11,29,12,02,6.40
2007,11,29,12,03,6.30
2007,11,29,12,04,6.30
2007,11,29,12,05,6.30
2007,11,29,12,06,6.30
2007,11,29,12,07,6.30
2007,11,29,12,08,6.30
2007,11,29,12,09,6.30
2007,11,29,12,10,6.30
2007,11,29,12,11,6.30
2007,11,29,12,12,6.20
2007,11,29,12,13,6.20
2007,11,29,12,14,6.20
2007,11,29,12,15,6.20
2007,11,29,12,16,6.20
2007,11,29,12,17,6.20
2007,11,29,12,18,6.20
2007,11,29,12,19,6.20
2007,11,29,12,20,6.20
2007,11,29,12,21,6.20
2007,11,29,12,22,6.20
2007,11,29,12,23,6.20
2007,11,29,12,24,6.20
2007,11,29,12,25,6.20
2007,11,29,12,26,6.20
2007,11,29,12,27,6.20
2007,11,29,12,28,6.20
2007,11,29,12,29,6.30
2007,11,29,12,30,6.30
2007,11,29,12,31,6.30
2007,11,29,12,32,6.30
2007,11,29,12,33,6.30
2007,11,29,12,34,6.20
2007,11,29,12,35,6.20
2007,11,29,12,36,6.30
2007,11,29,12,37,6.30
2007,11,29,12,38,6.30
2007,11,29,12,39,6.30
2007,11,29,12,40,6.30
2007,11,29,12,41,6.40
2007,11,29,12,42,6.40
2007,11,29,12,43,6.40
2007,11,29,12,44,6.40
2007,11,29,12,45,6.40
2007,11,29,12,46,6.40
2007,11,29,12,47,6.50
2007,11,29,12,48,6.40
2007,11,29,12,49,6.40
2007,11,29,12,50,6.40
2007,11,29,12,51,6.40
2007,11,29,12,52,6.40
2007,11,29,12,53,6.50
2007,11,29,12,54,6.60
2007,11,29,12,55,6.60
2007,11,29,12,56,6.60
2007,11,29,12,57,6.60
2007,11,29,12,58,6.60
2007,11,29,12,59,6.60
2007,11,29,13,00,6.60
2007,11,29,13,01,6.60
2007,11,29,13,02,6.60
2007,11,29,13,03,6.60
2007,11,29,13,04,6.60
2007,11,29,13,05,6.60
2007,11,29,13,06,6.60
2007,11,29,13,07,6.60
2007,11,29,13,08,6.60
2007,11,29,13,09,6.60
2007,11,29,13,10,6.70
2007,11,29,13,11,6.70
2007,11,29,13,12,6.70
2007,11,29,13,13,6.70
2007,11,29,13,14,6.70
2007,11,29,13,15,6.70
2007,11,29,13,16,6.70
2007,11,29,13,17,6.70
2007,11,29,13,18,6.70
2007,11,29,13,19,6.70
2007,11,29,13,20,6.70
2007,11,29,13,21,6.70
2007,11,29,13,22,6.70
2007,11,29,13,23,6.80
2007,11,29,13,24,6.80
2007,11,29,13,25,6.80
2007,11,29,13,26,6.80
2007,11,29,13,27,6.80
2007,11,29,13,28,6.80
2007,11,29,13,29,6.80
2007,11,29,13,30,6.80
2007,11,29,13,31,6.80
2007,11,29,13,32,6.80
2007,11,29,13,33,6.90
2007,11,29,13,34,6.90
2007,11,29,13,35,6.90
2007,11,29,13,36,6.90
2007,11,29,13,37,6.90
2007,11,29,13,38,6.90
2007,11,29,13,39,6.90
2007,11,29,13,40,6.90
2007,11,29,13,41,6.90
2007,11,29,13,42,7.00
2007,11,29,13,43,7.00
2007,11,29,13,44,7.10
2007,11,29,13,45,7.00
2007,11,29,13,46,7.00
2007,11,29,13,47,7.00
2007,11,29,13,48,7.00
2007,11,29,13,49,6.90
2007,11,29,13,50,6.90
2007,11,29,13,51,6.90
2007,11,29,13,52,6.80
2007,11,29,13,53,6.80
2007,11,29,13,54,6.80
2007,11,29,13,55,6.80
2007,11,29,13,56,6.80
2007,11,29,13,57,6.80
2007,11,29,13,58,6.90
2007,11,29,13,59,6.80
2007,11,29,14,00,6.80
2007,11,29,14,01,6.80
2007,11,29,14,02,6.80
2007,11,29,14,03,6.80
2007,11,29,14,04,6.80
2007,11,29,14,05,6.80
2007,11,29,14,06,6.80
2007,11,29,14,07,6.80
2007,11,29,14,08,6.80
2007,11,29,14,09,6.90
2007,11,29,14,10,6.90
2007,11,29,14,11,6.90
2007,11,29,14,12,6.90
2007,11,29,14,13,6.90
2007,11,29,14,14,7.00
2007,11,29,14,15,7.00
2007,11,29,14,16,7.00
2007,11,29,14,17,7.00
2007,11,29,14,18,7.10
2007,11,29,14,19,7.10
2007,11,29,14,20,7.10
2007,11,29,14,21,7.10
2007,11,29,14,22,7.10
2007,11,29,14,23,7.10
2007,11,29,14,24,7.00
2007,11,29,14,25,7.00
2007,11,29,14,26,7.00
2007,11,29,14,27,6.90
2007,11,29,14,28,6.90
2007,11,29,14,29,6.90
2007,11,29,14,30,6.90
2007,11,29,14,31,6.90
2007,11,29,14,32,6.90
2007,11,29,14,33,6.90
2007,11,29,14,34,6.90
2007,11,29,14,35,6.90
2007,11,29,14,36,6.80
2007,11,29,14,37,6.80
2007,11,29,14,38,6.80
2007,11,29,14,39,6.80
2007,11,29,14,40,6.80
2007,11,29,14,41,6.80
2007,11,29,14,42,6.70
2007,11,29,14,43,6.70
2007,11,29,14,44,6.70
2007,11,29,14,45,6.70
2007,11,29,14,46,6.70
2007,11,29,14,47,6.70
2007,11,29,14,48,6.70
2007,11,29,14,49,6.60
2007,11,29,14,50,6.60
2007,11,29,14,51,6.60
2007,11,29,14,52,6.60
2007,11,29,14,53,6.60
2007,11,29,14,54,6.60
2007,11,29,14,55,6.60
2007,11,29,14,56,6.60
2007,11,29,14,57,6.60
2007,11,29,14,58,6.60
2007,11,29,14,59,6.60
2007,11,29,15,00,6.60
2007,11,29,15,01,6.60
2007,11,29,15,02,6.60
2007,11,29,15,03,6.50
2007,11,29,15,04,6.50
2007,11,29,15,05,6.50
2007,11,29,15,06,6.40
2007,11,29,15,07,6.40
2007,11,29,15,08,6.40
2007,11,29,15,09,6.30
2007,11,29,15,10,6.30
2007,11,29,15,11,6.30
2007,11,29,15,12,6.20
2007,11,29,15,13,6.20
2007,11,29,15,14,6.20
2007,11,29,15,15,6.10
2007,11,29,15,16,6.10
2007,11,29,15,17,6.10
2007,11,29,15,18,6.10
2007,11,29,15,19,6.10
2007,11,29,15,20,6.10
2007,11,29,15,21,6.10
2007,11,29,15,22,6.00
2007,11,29,15,23,6.00
2007,11,29,15,24,6.00
2007,11,29,15,25,6.00
2007,11,29,15,26,5.90
2007,11,29,15,27,5.90
2007,11,29,15,28,5.90
2007,11,29,15,29,5.90
2007,11,29,15,30,5.80
2007,11,29,15,31,5.80
2007,11,29,15,32,5.80
2007,11,29,15,33,5.80
2007,11,29,15,34,5.80
2007,11,29,15,35,5.70
2007,11,29,15,36,5.70
2007,11,29,15,37,5.70
2007,11,29,15,38,5.70
2007,11,29,15,39,5.70
2007,11,29,15,40,5.70
2007,11,29,15,41,5.70
2007,11,29,15,42,5.70
2007,11,29,15,43,5.60
2007,11,29,15,44,5.60
2007,11,29,15,45,5.60
2007,11,29,15,46,5.60
2007,11,29,15,47,5.60
2007,11,29,15,48,5.60
2007,11,29,15,49,5.50
2007,11,29,15,50,5.50
2007,11,29,15,51,5.50
2007,11,29,15,52,5.40
2007,11,29,15,53,5.40
2007,11,29,15,54,5.40
2007,11,29,15,55,5.40
2007,11,29,15,56,5.30
2007,11,29,15,57,5.30
2007,11,29,15,58,5.30
2007,11,29,15,59,5.30
2007,11,29,16,00,5.30
2007,11,29,16,01,5.20
2007,11,29,16,02,5.20
2007,11,29,16,03,5.20
2007,11,29,16,04,5.20
2007,11,29,16,05,5.10
2007,11,29,16,06,5.10
2007,11,29,16,07,5.10
2007,11,29,16,08,5.10
2007,11,29,16,09,5.10
2007,11,29,16,10,5.00
2007,11,29,16,11,5.00
2007,11,29,16,12,5.00
2007,11,29,16,13,4.90
2007,11,29,16,14,4.90
2007,11,29,16,15,4.90
2007,11,29,16,16,4.90
2007,11,29,16,17,4.80
2007,11,29,16,18,4.80
2007,11,29,16,19,4.80
2007,11,29,16,20,4.80
2007,11,29,16,21,4.70
2007,11,29,16,22,4.70
2007,11,29,16,23,4.70
2007,11,29,16,24,4.70
2007,11,29,16,25,4.60
2007,11,29,16,26,4.60
2007,11,29,16,27,4.60
2007,11,29,16,28,4.50
2007,11,29,16,29,4.50
2007,11,29,16,30,4.50
2007,11,29,16,31,4.50
2007,11,29,16,32,4.40
2007,11,29,16,33,4.40
2007,11,29,16,34,4.40
2007,11,29,16,35,4.40
2007,11,29,16,36,4.30
2007,11,29,16,37,4.30
2007,11,29,16,38,4.30
2007,11,29,16,39,4.30
2007,11,29,16,40,4.30
2007,11,29,16,41,4.20
2007,11,29,16,42,4.20
2007,11,29,16,43,4.20
2007,11,29,16,44,4.20
2007,11,29,16,45,4.10
2007,11,29,16,46,4.10
2007,11,29,16,47,4.10
2007,11,29,16,48,4.10
2007,11,29,16,49,4.10
2007,11,29,16,50,4.10
2007,11,29,16,51,4.10
2007,11,29,16,52,4.10
2007,11,29,16,53,4.10
2007,11,29,16,54,4.00
2007,11,29,16,55,4.00
2007,11,29,16,56,4.00
2007,11,29,16,57,4.00
2007,11,29,16,58,4.00
2007,11,29,16,59,3.90
2007,11,29,17,00,3.90
2007,11,29,17,01,3.90
2007,11,29,17,02,3.90
2007,11,29,17,03,3.90
2007,11,29,17,04,3.90
2007,11,29,17,05,3.90
2007,11,29,17,06,3.80
2007,11,29,17,07,3.80
2007,11,29,17,08,3.80
2007,11,29,17,09,3.80
2007,11,29,17,10,3.80
2007,11,29,17,11,3.80
2007,11,29,17,12,3.80
2007,11,29,17,13,3.70
2007,11,29,17,14,3.70
2007,11,29,17,15,3.70
2007,11,29,17,16,3.70
2007,11,29,17,17,3.70
2007,11,29,17,18,3.70
2007,11,29,17,19,3.70
2007,11,29,17,20,3.70
2007,11,29,17,21,3.60
2007,11,29,17,22,3.60
2007,11,29,17,23,3.60
2007,11,29,17,24,3.60
2007,11,29,17,25,3.60
2007,11,29,17,26,3.60
2007,11,29,17,27,3.60
2007,11,29,17,28,3.60
2007,11,29,17,29,3.60
2007,11,29,17,30,3.60
2007,11,29,17,31,3.60
2007,11,29,17,32,3.60
2007,11,29,17,33,3.60
2007,11,29,17,34,3.60
2007,11,29,17,35,3.50
2007,11,29,17,36,3.50
2007,11,29,17,37,3.50
2007,11,29,17,38,3.50
2007,11,29,17,39,3.50
2007,11,29,17,40,3.50
2007,11,29,17,41,3.50
2007,11,29,17,42,3.50
2007,11,29,17,43,3.50
2007,11,29,17,44,3.50
2007,11,29,17,45,3.50
2007,11,29,17,46,3.50
2007,11,29,17,47,3.50
2007,11,29,17,48,3.40
2007,11,29,17,49,3.40
2007,11,29,17,50,3.40
2007,11,29,17,51,3.40
2007,11,29,17,52,3.40
2007,11,29,17,53,3.40
2007,11,29,17,54,3.40
2007,11,29,17,55,3.40
2007,11,29,17,56,3.30
2007,11,29,17,57,3.30
2007,11,29,17,58,3.30
2007,11,29,17,59,3.30
2007,11,29,18,00,3.30
2007,11,29,18,01,3.30
2007,11,29,18,02,3.30
2007,11,29,18,03,3.30
2007,11,29,18,04,3.30
2007,11,29,18,05,3.30
2007,11,29,18,06,3.30